Weather History for KBDL - June, 2013

Change the Weather History Date:

Saturday, June 22, 2013

  Actual Average Record
Temperature  
Mean Temperature 74 °F 70 °F  
Max Temperature 85 °F 81 °F 95 °F (1921)
Min Temperature 62 °F 59 °F 41 °F (1940)
Degree Days  
Heating Degree Days 0 1  
Month to date heating degree days 33 39  
Since 1 June heating degree days 33 39  
Since 1 July heating degree days 5717 5997  
Cooling Degree Days 9 6  
Month to date cooling degree days 67 90  
Year to date cooling degree days 121 129  
Since 1 June cooling degree days 67 90  
Growing Degree Days 23 (Base 50)    
Moisture  
Dew Point 57 °F    
Average Humidity 56    
Maximum Humidity 78    
Minimum Humidity 34    
Precipitation  
Precipitation 0.00 in 0.12 in 2.01 in (1918)
Month to date precipitation 9.02 3.40  
Year to date precipitation 25.16 21.21  
Snow  
Snow 0.00 in 0.00 in T in (1955)
Month to date snowfall 0.0 0.0  
Since 1 June snowfall 0.0 0.0  
Since 1 July snowfall 56.9 40.5  
Snow Depth 0.00 in    
Sea Level Pressure  
Sea Level Pressure 30.19 in    
Wind  
Wind Speed 9 mph (South)    
Max Wind Speed 17 mph    
Max Gust Speed 28 mph    
Visibility 10 miles    
Events      
T = Trace of Precipitation, MM = Missing Value Source: NWS Daily Summary

Daily Weather History Graph

Daily Weather History Graph

Search for Another Location

Airport or City:

Trip Planner

Search our weather history database for the weather conditions in past years. The results will help you decide how hot, cold, wet, or windy it might be!

Date:

Astronomy

Jun. 22, 2013 Rise Set
Actual Time 5:15 AM EDT 8:29 PM EDT
Civil Twilight 4:41 AM EDT 9:04 PM EDT
Nautical Twilight 3:56 AM EDT 9:48 PM EDT
Astronomical Twilight 3:03 AM EDT 10:42 PM EDT
Moon 7:40 PM EDT (6/22) 4:26 AM EDT (6/22)
Length of Visible Light 16h 22m
Length of Day
15h 14m
Waxing Gibbous, 99% of the Moon is Illuminated
Jun 22
Waxing Gibbous
Jun 23
Full
Jun 30
Last Quarter
Jul 8
New
Jul 15
First Quarter

Hourly Weather History & Observations

Time (EDT) Temp. Heat Index Dew Point Humidity Pressure Visibility Wind Dir Wind Speed Gust Speed Precip Events Conditions
12:51 AM 68.0 °F - 55.9 °F 65% 30.22 in 10.0 mi South 6.9 mph - N/A   Mostly Cloudy
1:51 AM 66.9 °F - 55.0 °F 66% 30.23 in 10.0 mi South 6.9 mph - N/A   Scattered Clouds
2:51 AM 64.9 °F - 55.0 °F 70% 30.23 in 10.0 mi South 8.1 mph - N/A   Scattered Clouds
3:51 AM 64.0 °F - 55.0 °F 73% 30.22 in 10.0 mi South 8.1 mph - N/A   Partly Cloudy
4:51 AM 63.0 °F - 55.0 °F 75% 30.22 in 10.0 mi South 8.1 mph - N/A   Scattered Clouds
5:51 AM 63.0 °F - 54.0 °F 72% 30.22 in 10.0 mi South 10.4 mph - N/A   Mostly Cloudy
6:51 AM 64.0 °F - 55.0 °F 73% 30.22 in 10.0 mi South 5.8 mph - N/A   Scattered Clouds
7:51 AM 66.9 °F - 55.9 °F 68% 30.22 in 10.0 mi South 6.9 mph - N/A   Scattered Clouds
8:51 AM 70.0 °F - 57.0 °F 63% 30.22 in 10.0 mi South 5.8 mph - N/A   Partly Cloudy
9:51 AM 75.0 °F - 59.0 °F 57% 30.22 in 10.0 mi SW 9.2 mph - N/A   Scattered Clouds
10:51 AM 78.1 °F - 59.0 °F 52% 30.23 in 10.0 mi South 8.1 mph - N/A   Mostly Cloudy
11:51 AM 81.0 °F 81.1 °F 57.9 °F 45% 30.21 in 10.0 mi SSW 11.5 mph - N/A   Mostly Cloudy
12:51 PM 82.9 °F 82.1 °F 55.9 °F 39% 30.20 in 10.0 mi SW 10.4 mph - N/A   Mostly Cloudy
1:51 PM 84.0 °F 82.6 °F 54.0 °F 35% 30.18 in 10.0 mi SSW 13.8 mph 20.7 mph N/A   Mostly Cloudy
2:51 PM 84.0 °F 82.9 °F 55.0 °F 37% 30.16 in 10.0 mi SSW 10.4 mph - N/A   Mostly Cloudy
3:51 PM 84.9 °F 83.9 °F 57.0 °F 38% 30.14 in 10.0 mi South 11.5 mph 19.6 mph N/A   Mostly Cloudy
4:51 PM 84.0 °F 83.3 °F 57.0 °F 40% 30.13 in 10.0 mi SSW 12.7 mph 17.3 mph N/A   Mostly Cloudy
5:51 PM 82.0 °F 82.0 °F 57.9 °F 44% 30.12 in 10.0 mi South 12.7 mph - N/A   Overcast
6:51 PM 78.1 °F - 59.0 °F 52% 30.12 in 10.0 mi South 10.4 mph - N/A   Mostly Cloudy
7:51 PM 75.0 °F - 60.1 °F 60% 30.12 in 10.0 mi South 9.2 mph - N/A   Mostly Cloudy
8:51 PM 73.0 °F - 57.9 °F 59% 30.13 in 10.0 mi South 10.4 mph - N/A   Scattered Clouds
9:51 PM 71.1 °F - 57.0 °F 61% 30.15 in 10.0 mi South 8.1 mph - N/A   Scattered Clouds
10:51 PM 70.0 °F - 57.9 °F 65% 30.16 in 10.0 mi South 9.2 mph - N/A   Scattered Clouds
11:51 PM 69.1 °F - 57.9 °F 68% 30.17 in 10.0 mi South 8.1 mph - N/A   Mostly Cloudy